Wind_Speed
14 15 16 15 15 15 14 14 15 15 14 13 12 13 13 13 13 13 13 12 12 12 12 12 11 10 10 10 9 10 9 10 10 10 10 9 9 10 10 11 11 11 12
17 16 17 17 16 16 16 15 16 16 16 15 14 14 14 15 15 14 14 13 13 12 12 11 11 11 10 10 10 10 10 10 10 10 10 10 10 11 11 12 12 12 13
18 18 18 18 18 18 17 17 17 18 18 17 16 15 15 16 15 15 14 13 13 12 12 12 12 12 11 11 11 12 12 12 11 11 11 11 11 12 13 13 12 12 13
21 20 20 20 20 20 19 19 19 19 19 18 18 17 17 18 17 15 14 14 14 14 14 14 14 14 13 13 13 14 14 13 13 13 13 13 13 13 13 14 13 13 13
23 23 23 22 22 22 21 21 21 21 21 20 19 19 19 19 18 17 16 16 15 15 15 15 15 15 15 15 15 16 16 15 15 15 14 14 14 15 15 15 15 15 15
25 24 24 24 24 23 24 23 22 21 22 22 21 21 20 20 19 19 18 17 17 16 17 17 17 17 17 17 17 18 18 16 16 16 15 15 15 16 16 16 16 16 16
26 26 26 26 25 25 25 24 23 23 23 23 22 22 22 21 19 19 20 20 19 18 18 19 19 19 18 18 19 19 19 18 17 17 17 17 16 16 16 17 17 17 17
27 27 28 28 28 27 27 26 26 25 24 23 22 22 22 21 21 21 21 22 21 20 20 20 20 20 20 20 20 21 20 19 19 19 19 18 17 17 17 17 17 17 17
27 28 28 28 29 29 28 28 27 25 24 23 22 22 22 22 22 23 23 23 22 22 22 23 23 22 22 22 22 22 21 21 20 20 19 19 19 19 18 18 18 18 18
28 28 29 30 30 30 30 28 27 26 24 22 22 23 23 23 23 23 23 24 23 23 24 24 24 23 23 23 24 23 22 22 21 21 20 20 20 20 19 19 19 19 19
28 29 29 30 31 31 30 28 27 27 26 25 25 24 24 24 24 24 23 23 24 24 24 25 25 25 24 24 23 23 22 22 22 21 21 21 21 20 20 20 19 19 20
29 30 29 29 29 29 29 29 28 28 27 27 26 24 24 25 26 26 25 25 25 26 26 26 26 26 25 25 24 23 22 22 22 22 21 21 20 20 21 21 21 21 21
30 30 30 30 30 30 29 29 28 29 29 28 27 26 25 25 27 27 27 27 28 28 28 28 28 27 27 26 25 24 23 22 22 22 22 21 21 21 22 22 22 22 22
32 32 32 31 31 31 31 30 28 28 28 27 27 27 27 27 27 28 29 29 29 29 29 29 29 28 27 27 26 24 23 23 22 22 22 22 21 22 22 22 23 23 23
32 32 33 32 31 30 30 30 30 28 28 28 28 29 30 30 30 30 30 29 29 29 29 29 28 27 27 27 27 26 25 24 23 22 22 22 22 22 22 23 23 23 23
30 31 32 31 31 31 31 30 31 30 29 30 30 31 32 32 31 30 30 29 28 28 28 28 28 28 27 27 27 27 26 24 24 23 22 22 22 21 21 22 22 23 22
29 29 30 30 32 32 32 32 31 31 31 31 32 32 32 32 31 31 31 30 29 28 27 28 28 27 26 26 25 26 25 24 25 24 23 23 22 21 21 21 21 21 21
29 30 30 31 32 32 31 31 32 32 32 33 33 32 33 33 32 32 30 30 30 29 28 28 28 28 27 26 26 25 25 25 24 25 25 24 24 23 22 21 21 20 21
30 30 30 30 31 31 31 31 31 32 32 31 31 32 32 32 32 31 30 30 29 29 29 29 30 29 28 27 27 26 26 26 26 25 25 25 24 24 23 22 22 22 22
30 30 30 30 30 30 30 29 29 30 30 29 30 31 31 31 30 30 30 31 30 29 29 29 30 29 29 28 27 27 27 27 27 27 26 26 25 25 25 25 24 23 23
29 29 29 29 28 28 28 28 28 28 28 28 28 29 30 30 30 29 30 30 30 30 30 30 29 29 29 29 28 28 29 28 29 28 28 27 26 25 24 24 24 25 24
28 28 28 27 26 26 26 27 27 27 28 28 28 29 28 29 29 30 30 30 30 30 31 31 30 30 30 29 29 30 29 29 29 29 27 27 26 26 25 25 25 26 25
26 26 26 25 25 24 25 26 26 27 27 27 28 28 28 28 29 29 29 29 30 29 28 28 28 29 29 29 30 30 30 30 30 29 28 27 27 27 26 26 26 27 26
24 24 24 24 24 25 26 26 26 26 26 26 27 27 28 28 28 27 28 28 28 28 27 27 28 28 29 29 30 30 30 30 30 29 29 28 27 27 26 27 27 27 26
24 23 24 24 25 25 25 25 25 25 26 26 27 27 27 27 27 27 26 26 26 27 27 27 27 28 29 30 31 31 30 30 29 29 29 28 27 27 27 26 27 27 27
23 23 23 24 24 24 25 25 25 25 25 26 26 26 26 26 26 26 26 25 25 25 25 25 25 26 27 28 29 30 30 30 30 29 29 27 27 26 26 26 26 26 26
Wind_Direction
289 293 293 293 293 291 290 290 292 291 290 289 288 287 289 292 292 291 290 288 284 282 282 285 287 290 288 289 289 291 295 294 290 286 286 289 291 292 290 287 283 280 280
284 288 292 291 287 285 284 286 287 287 287 285 281 282 284 287 285 282 283 281 282 283 285 283 285 288 288 286 285 288 292 297 294 288 287 289 287 288 288 287 284 281 281
281 282 286 287 285 284 283 282 283 284 284 285 280 278 282 283 284 284 284 282 280 281 284 282 282 285 285 284 282 284 284 287 289 288 284 283 284 286 284 282 283 281 282
277 280 282 283 282 281 279 279 280 279 279 280 279 279 281 284 281 279 280 277 273 275 281 281 282 283 282 282 282 284 285 284 284 284 282 282 283 286 284 284 282 283 283
274 277 278 279 279 278 277 279 279 277 276 276 276 277 277 281 278 276 278 273 269 272 275 277 280 282 282 281 280 283 284 283 283 284 283 282 283 285 282 281 280 282 282
274 276 276 277 278 277 278 279 279 276 276 274 276 277 277 280 277 274 272 272 271 271 271 274 277 279 281 280 281 283 283 281 281 283 284 283 283 285 282 281 279 281 281
276 276 275 276 277 277 276 275 277 276 275 276 277 276 273 277 276 275 274 272 272 273 274 274 276 278 278 279 281 283 282 279 280 281 282 283 283 285 283 282 280 280 281
275 276 275 275 275 276 276 275 276 278 279 278 275 274 272 275 275 273 274 274 273 274 275 275 276 277 277 278 279 280 280 279 278 280 279 279 281 283 283 282 280 278 278
276 275 275 275 275 275 275 276 274 278 279 281 279 276 274 275 277 275 273 272 272 273 274 274 274 274 275 275 278 279 279 278 278 279 279 278 279 280 280 280 279 277 276
274 273 273 273 273 274 273 274 275 278 278 278 278 275 274 275 276 275 273 272 271 272 273 273 274 274 273 274 278 277 275 275 275 276 277 277 278 277 278 278 278 277 277
275 274 274 273 272 272 274 275 274 272 273 275 276 276 276 275 275 273 272 272 272 273 273 273 272 271 272 274 274 274 273 272 272 273 274 275 276 275 276 277 276 276 276
279 277 277 277 276 274 274 274 272 269 269 270 273 275 275 272 272 272 272 272 272 272 271 272 272 271 273 274 274 273 272 270 271 271 272 273 274 275 275 276 277 276 275
282 279 279 277 276 274 274 275 274 270 268 269 271 271 272 273 273 273 271 272 273 272 271 270 271 271 273 274 272 271 270 269 269 270 272 271 272 274 274 274 275 276 276
282 280 279 279 277 275 275 275 276 273 271 270 270 270 271 271 272 272 272 274 272 270 268 269 268 268 268 269 269 269 268 268 269 270 270 270 271 274 275 274 274 275 276
283 281 279 279 277 275 273 273 274 273 271 272 271 271 271 272 272 273 273 273 271 270 267 267 266 264 264 264 266 267 267 267 268 269 270 270 270 271 273 275 274 274 275
282 280 278 277 275 274 272 272 272 272 271 271 272 273 274 274 273 274 274 273 270 268 266 265 264 263 262 262 263 265 266 265 265 267 268 269 268 270 273 274 273 271 272
281 279 278 276 275 274 272 271 272 273 273 273 274 275 275 277 274 274 274 273 270 268 267 263 263 263 262 262 262 264 264 264 264 267 267 268 269 269 271 272 273 271 271
283 281 280 279 276 274 274 274 273 274 274 275 276 277 279 279 277 276 273 272 269 267 266 264 264 262 261 260 261 261 262 262 262 264 265 266 266 266 269 272 271 271 272
284 283 283 283 280 276 274 274 274 275 275 275 275 275 277 277 275 273 271 270 268 266 264 263 264 262 260 260 260 259 259 260 261 263 264 264 264 266 268 269 267 267 270
284 284 283 283 281 277 275 275 275 275 276 276 276 275 275 275 273 271 270 269 268 265 262 261 263 260 258 258 258 257 257 259 261 262 261 262 264 267 268 268 266 266 269
286 286 286 284 282 278 275 274 275 275 276 276 277 276 275 274 272 272 270 268 266 265 262 261 261 258 257 258 257 258 256 258 261 261 262 262 263 266 266 268 266 266 268
288 288 288 286 283 280 279 277 277 275 274 275 275 275 275 274 272 271 270 269 267 266 264 262 259 259 258 256 255 257 256 258 260 261 262 261 262 264 267 268 267 266 267
289 288 288 287 286 284 283 282 280 277 275 274 274 274 274 275 274 273 270 269 268 267 266 261 260 258 256 255 254 256 256 256 258 259 259 260 261 264 266 266 265 265 267
290 290 288 287 287 285 284 284 281 277 276 274 274 274 274 273 273 273 271 270 269 268 265 261 259 257 254 254 256 255 256 257 257 257 257 258 259 262 266 266 265 265 265
292 289 290 290 290 287 284 283 281 278 275 274 275 275 274 273 271 272 271 270 269 267 264 260 258 257 257 256 256 255 254 254 254 255 256 257 258 260 264 263 264 265 266
291 291 291 291 291 290 288 285 282 281 278 277 276 276 275 274 272 271 270 270 268 266 264 260 259 258 258 256 256 254 252 252 252 252 253 256 257 259 262 262 263 265 267
Height
5879 5879 5878 5877 5877 5876 5876 5875 5875 5874 5873 5873 5872 5871 5870 5870 5869 5868 5867 5866 5865 5864 5864 5864 5863 5863 5863 5863 5862 5862 5861 5861 5860 5860 5860 5859 5858 5858 5858 5857 5857 5856 5856
5876 5875 5874 5874 5873 5873 5872 5872 5872 5871 5870 5869 5869 5868 5867 5867 5865 5864 5864 5863 5862 5861 5861 5861 5861 5861 5861 5860 5860 5859 5859 5858 5858 5857 5857 5857 5857 5855 5855 5854 5854 5853 5852
5871 5871 5870 5870 5869 5869 5868 5868 5867 5867 5866 5866 5864 5864 5863 5863 5862 5861 5860 5859 5859 5858 5858 5858 5858 5858 5858 5858 5857 5857 5856 5855 5855 5854 5854 5854 5853 5852 5852 5851 5850 5850 5849
5867 5866 5866 5865 5864 5864 5864 5863 5863 5862 5862 5861 5860 5859 5859 5858 5858 5857 5856 5856 5855 5855 5855 5855 5855 5855 5854 5854 5854 5853 5853 5852 5851 5851 5850 5850 5850 5849 5848 5848 5847 5846 5845
5862 5861 5861 5860 5859 5859 5858 5858 5858 5857 5857 5856 5855 5855 5854 5853 5853 5852 5852 5852 5851 5851 5851 5851 5851 5851 5850 5850 5850 5850 5849 5849 5848 5847 5847 5846 5846 5845 5845 5844 5843 5843 5842
5856 5856 5855 5855 5854 5853 5853 5852 5852 5851 5850 5850 5849 5849 5848 5848 5847 5847 5847 5847 5847 5847 5847 5846 5846 5846 5846 5846 5846 5845 5845 5844 5844 5844 5843 5842 5842 5841 5840 5840 5839 5839 5838
5850 5849 5849 5848 5848 5847 5846 5846 5845 5845 5844 5843 5843 5842 5842 5842 5841 5842 5842 5842 5842 5842 5842 5842 5842 5841 5841 5841 5841 5841 5840 5840 5839 5839 5839 5838 5838 5837 5836 5836 5835 5834 5834
5843 5843 5842 5842 5841 5840 5840 5839 5838 5838 5838 5836 5835 5835 5836 5836 5836 5836 5836 5836 5836 5837 5836 5836 5836 5836 5836 5836 5836 5835 5835 5835 5835 5834 5834 5833 5833 5832 5831 5831 5830 5830 5829
5836 5836 5835 5834 5833 5833 5832 5832 5832 5831 5830 5829 5829 5829 5830 5830 5830 5830 5830 5830 5830 5830 5831 5830 5830 5830 5830 5830 5830 5830 5829 5829 5829 5829 5828 5828 5828 5827 5827 5826 5825 5825 5825
5829 5828 5828 5827 5826 5826 5825 5824 5825 5824 5824 5824 5823 5823 5823 5823 5823 5823 5823 5824 5824 5824 5824 5824 5823 5823 5824 5824 5824 5824 5823 5823 5823 5823 5823 5822 5822 5822 5821 5821 5820 5820 5819
5822 5820 5820 5819 5818 5818 5817 5817 5817 5817 5817 5817 5817 5817 5817 5817 5817 5817 5817 5817 5817 5817 5817 5817 5817 5817 5817 5817 5817 5818 5817 5817 5817 5817 5817 5817 5816 5816 5816 5815 5815 5814 5814
5813 5812 5811 5811 5810 5810 5809 5809 5809 5810 5810 5810 5810 5809 5810 5809 5809 5809 5809 5810 5810 5810 5810 5810 5810 5810 5810 5810 5811 5811 5811 5811 5811 5811 5811 5811 5810 5810 5810 5810 5809 5809 5808
5805 5804 5803 5802 5802 5802 5801 5801 5801 5801 5801 5802 5802 5802 5802 5802 5802 5801 5802 5802 5802 5802 5802 5802 5803 5803 5803 5803 5803 5804 5804 5804 5804 5804 5804 5805 5804 5804 5804 5804 5803 5803 5803
5796 5795 5794 5793 5793 5793 5793 5793 5793 5793 5793 5794 5794 5795 5795 5794 5794 5794 5794 5794 5793 5793 5794 5794 5795 5795 5795 5796 5796 5797 5797 5798 5798 5798 5798 5798 5798 5798 5798 5798 5797 5797 5796
5787 5786 5785 5784 5784 5784 5784 5785 5785 5785 5785 5786 5786 5786 5786 5786 5786 5785 5785 5784 5784 5784 5785 5785 5786 5787 5788 5788 5789 5789 5790 5791 5791 5791 5791 5791 5792 5792 5792 5792 5791 5791 5790
5779 5777 5776 5776 5775 5776 5776 5776 5777 5777 5777 5777 5777 5777 5777 5776 5776 5776 5776 5775 5775 5775 5776 5776 5778 5779 5780 5780 5781 5782 5782 5783 5783 5784 5784 5785 5785 5785 5785 5785 5785 5784 5784
5770 5769 5767 5767 5767 5767 5767 5767 5767 5768 5768 5767 5767 5767 5766 5766 5766 5766 5766 5766 5766 5766 5767 5768 5769 5770 5772 5773 5774 5774 5775 5776 5777 5777 5778 5778 5778 5778 5778 5778 5778 5778 5778
5762 5760 5759 5758 5757 5757 5757 5758 5758 5758 5758 5758 5757 5757 5757 5757 5757 5757 5756 5756 5757 5757 5758 5759 5760 5761 5763 5764 5766 5766 5767 5768 5769 5770 5770 5771 5771 5772 5772 5772 5771 5772 5771
5754 5752 5750 5749 5748 5748 5748 5749 5749 5748 5748 5748 5748 5748 5747 5747 5746 5747 5747 5747 5747 5748 5749 5750 5751 5752 5754 5756 5757 5758 5760 5761 5762 5762 5763 5763 5764 5764 5765 5765 5765 5765 5765
5745 5743 5742 5740 5739 5739 5738 5739 5739 5739 5739 5739 5739 5738 5738 5737 5737 5737 5737 5737 5738 5738 5739 5741 5742 5743 5745 5747 5748 5750 5751 5753 5754 5754 5754 5755 5756 5757 5756 5757 5757 5758 5758
5737 5735 5733 5732 5731 5730 5730 5730 5730 5730 5730 5730 5729 5729 5728 5728 5728 5727 5727 5727 5728 5728 5730 5731 5732 5733 5735 5737 5739 5740 5742 5744 5745 5746 5746 5747 5748 5748 5748 5749 5750 5750 5750
5729 5727 5725 5723 5722 5722 5721 5721 5721 5721 5721 5721 5721 5720 5719 5718 5718 5718 5718 5718 5718 5719 5719 5720 5722 5723 5725 5727 5729 5731 5732 5734 5736 5737 5738 5739 5740 5741 5741 5741 5742 5742 5743
5722 5719 5717 5716 5715 5714 5713 5713 5713 5712 5712 5712 5712 5711 5710 5709 5709 5709 5708 5708 5708 5709 5709 5710 5712 5713 5715 5717 5719 5721 5723 5724 5726 5728 5729 5730 5732 5732 5733 5734 5734 5734 5735
5715 5712 5711 5709 5708 5706 5706 5705 5704 5704 5703 5703 5703 5702 5701 5700 5700 5699 5699 5699 5699 5700 5700 5701 5702 5704 5706 5708 5710 5711 5713 5715 5717 5719 5720 5721 5723 5724 5724 5725 5726 5726 5727
5708 5706 5704 5703 5701 5699 5698 5697 5696 5695 5695 5694 5694 5693 5692 5691 5691 5691 5690 5690 5691 5691 5691 5692 5693 5695 5697 5699 5700 5702 5704 5706 5708 5710 5711 5713 5714 5715 5716 5717 5718 5718 5719
5702 5700 5698 5696 5695 5693 5691 5690 5688 5687 5687 5686 5685 5684 5683 5682 5682 5681 5682 5681 5682 5682 5683 5684 5685 5687 5688 5689 5691 5693 5694 5696 5699 5701 5703 5704 5706 5707 5708 5709 5709 5710 5711